[[{"header":{"parameterUnit":"m.s-1","parameterCategory":1,"la1":30.2991,"la2":30.254,"lo1":-89.0895,"lo2":-89.0444,"dy":0.0017,"dx":0.0017,"nx":28,"ny":28,"refTime":"2024-05-17T09:00:00:Z","depth":0,"parameterNumber":2,"parameterNumberName":"U-component_of_WINDS"},"data":[0,0,0,0,0,0,0,0,0,0,0,0,0,0,0,0,0,0,0,0,0,0,0,0,0,0,0,0,0,0,0,0,0,0,0,0,0,0,0,0,0,0,0,0,0,0,0,0,0,0,0,0,0,0,0,0,0,0,4.0372,4.0364,0,3.9654,3.9646,3.9637,3.9278,3.9278,3.9278,3.9278,3.851,3.849,3.847,0,0,0,0,0,0,0,0,0,0,0,0,0,4.1393,4.1376,4.0373,4.0364,4.0355,3.9655,3.9645,3.9635,3.9278,3.9278,3.9278,3.9278,3.8517,3.8493,3.8468,0,0,0,0,0,0,0,0,0,0,0,0,0,4.0839,4.1371,4.0374,4.0093,4.0061,3.9657,3.9645,3.9633,3.9278,3.9278,3.9278,3.9278,3.8525,3.8495,3.8465,3.8277,0,0,3.8371,3.8358,0,0,0,0,0,0,0,0,4.0871,4.0802,4.0143,4.0111,4.0075,3.9556,3.9723,3.9177,3.9278,3.9574,3.9278,3.9278,3.8856,3.8798,3.8662,3.8241,3.8208,3.8369,3.835,3.8337,3.8328,0,0,0,0,0,0,0,4.091,4.0831,4.0087,4.0134,4.0092,3.9988,3.991,3.9618,3.9223,3.9548,3.9521,3.9442,3.8837,3.8693,3.8642,3.8197,3.8369,3.8342,3.8323,3.8311,3.7566,3.7565,0,0,0,0,0,0,4.0999,4.0865,4.011,4.0065,4.0482,3.9971,3.9882,3.9722,3.9226,3.915,3.9443,3.9428,3.8745,3.8678,3.8613,3.835,3.8337,3.8308,3.8291,3.7567,3.7566,3.7564,0,0,0,0,0,0,4.1023,4.0935,4.0139,4.0457,4.0348,3.9953,3.9776,3.9708,3.9564,3.9147,3.907,3.9372,3.8743,3.8656,3.8362,3.8319,3.8295,3.8267,3.7569,3.7567,3.7565,3.7831,0,0,0,0,0,0,4.1053,4.0946,4.0882,4.0459,4.0333,3.9913,3.9773,3.9694,3.9516,3.949,3.9059,3.8987,3.8736,3.8409,3.8331,3.8276,3.8243,3.7571,3.7568,3.7566,3.7824,3.7838,3.7851,0,0,0,0,0,4.1091,4.0981,4.088,4.0791,4.0246,3.9912,3.9837,3.9561,3.9515,3.9438,3.9167,3.9001,3.8338,3.8382,3.8291,3.8227,3.7572,3.7569,3.7566,3.7818,3.7836,3.785,0,0,0,0,0,0,4.1399,4.0921,4.0804,4.0557,4.0279,3.9852,3.9749,3.959,3.9311,3.9297,3.8953,3.8858,3.8592,3.8378,3.8438,3.801,3.7937,3.7916,3.816,3.8173,3.8186,3.824,3.8217,0,0,0,0,0,4.1441,4.1222,4.081,4.063,4.0497,4.0148,3.9992,3.9802,3.9495,3.9373,3.9081,3.878,3.8501,3.8325,3.8047,3.7791,3.7683,3.77,3.7714,3.7726,3.771,3.7544,3.7543,3.7553,3.7554,3.7554,0,0,4.1519,4.123,4.1112,4.0685,4.0447,4.0213,4.0051,3.9814,3.9632,3.9333,3.9038,3.8812,3.8451,3.8173,3.8035,3.7987,3.7683,3.7722,3.7736,3.7711,3.754,3.754,3.7539,3.7551,3.7552,3.7552,0,0,4.1543,4.1309,4.1129,4.0894,4.0539,4.0305,4.0262,3.9856,3.9697,3.9398,3.9164,3.8936,3.8469,3.8218,3.8029,3.7947,3.7777,3.7864,3.7931,3.7773,3.7772,3.777,3.7729,3.772,3.785,3.7851,3.7851,0,4.1684,4.1337,4.1054,4.0828,4.064,4.0366,4.017,3.9952,3.952,3.9389,3.9344,3.8744,3.8482,3.8135,3.8114,3.7974,3.7901,3.7912,3.7798,3.7792,3.7785,3.7742,3.7729,3.7863,3.7862,3.786,3.7859,0,4.152,4.1281,4.1175,4.0774,4.0573,4.0365,4.0036,3.9864,3.9688,3.9455,3.9143,3.8819,3.8465,3.8368,3.8193,3.799,3.797,3.7867,3.7785,3.7802,3.7754,3.7737,3.7881,3.7877,3.7873,3.787,0,0,4.1723,4.1164,4.1129,4.0938,4.0521,4.0323,4.0093,3.9756,3.9609,3.9316,3.9106,3.8712,3.8609,3.8395,3.8186,3.8049,3.7989,3.7957,3.7943,3.7967,3.773,3.7808,3.7796,3.7876,3.7872,3.7868,3.7757,0,4.1683,4.1276,4.1008,4.0698,4.0464,4.0194,3.9991,3.9705,3.9478,3.9234,3.8976,3.87,3.8592,3.8458,3.8311,3.803,3.7936,3.8034,3.7662,3.7653,3.7758,3.7772,3.7856,3.7768,3.7739,3.7735,3.7733,0,4.1586,4.1308,4.0979,4.0576,4.0467,4.0293,3.9954,3.9731,3.9392,3.9234,3.8993,3.878,3.8509,3.8453,3.8066,3.8139,3.7969,3.7806,3.7795,3.7745,3.7692,3.7715,3.7734,3.7719,3.7704,3.7706,3.7708,0,4.1757,4.1299,4.1039,4.0885,4.0412,4.0292,4.0087,3.975,3.956,3.9259,3.9129,3.8798,3.8615,3.8356,3.8053,3.8043,3.7691,3.7614,3.754,3.7548,3.7477,3.7484,3.7462,3.738,3.738,3.738,3.738,0,4.1738,4.1544,4.1109,4.095,4.0718,4.0404,4.0179,3.9949,3.9649,3.9427,3.9169,3.8964,3.858,3.8321,3.808,3.7789,3.771,3.7563,3.7501,3.7584,3.7601,3.7464,3.746,3.7376,3.7377,3.7378,3.7378,0,4.1891,4.1595,4.1292,4.0868,4.0756,4.0603,4.0231,4.0056,3.9813,3.9534,3.945,3.9063,3.8745,3.8418,3.7986,3.7822,3.7535,3.7453,3.7653,3.7617,3.7559,3.7566,3.7442,3.7404,3.7358,3.7359,3.736,0,4.1898,4.1743,4.1303,4.1141,4.0945,4.0687,4.0492,4.0171,3.9975,3.9572,3.9442,3.9106,3.8821,3.8322,3.7992,3.7656,3.7558,3.7537,3.7505,3.7589,3.7545,3.7557,3.7533,3.7549,3.7551,3.7553,3.7555,0,4.1937,4.1795,4.1532,4.1213,4.0989,4.072,4.0439,4.0317,3.9937,3.9727,3.9404,3.9183,3.8741,3.8404,3.8027,3.7797,3.7606,3.7568,3.753,3.7611,3.773,3.7655,3.7679,3.7571,3.7569,3.7568,3.7567,3.7567,4.2009,4.1855,4.152,4.1229,4.0986,4.0727,4.054,4.0273,4.0001,3.9624,3.9446,3.9118,3.8764,3.824,3.8013,3.774,3.7687,3.7638,3.7623,3.7614,3.763,3.778,3.7671,3.767,3.7669,3.7668,3.7667,0,4.2028,4.1798,4.1535,4.1153,4.092,4.0772,4.0449,4.026,3.9979,3.9672,3.9396,3.9015,3.8685,3.8328,3.7973,3.7821,3.7723,3.7738,3.7742,3.7689,3.7702,3.7766,3.7822,3.7822,3.7822,3.7822,3.7822,3.7822,4.2011,4.1739,4.1555,4.1151,4.0916,4.0602,4.0429,4.0181,3.9934,3.9525,3.9253,3.9025,3.8691,3.8308,3.7992,3.7893,3.7769,3.7808,3.7683,3.7701,3.769,3.7679,3.7737,3.7786,3.7786,3.769,3.769,3.7689]},{"header":{"parameterUnit":"m.s-1","parameterCategory":1,"la1":30.2991,"la2":30.254,"lo1":-89.0895,"lo2":-89.0444,"dy":0.0017,"dx":0.0017,"nx":28,"ny":28,"refTime":"2024-05-17T09:00:00:Z","depth":0,"parameterNumber":3,"parameterNumberName":"V-component_of_WINDS"},"data":[0,0,0,0,0,0,0,0,0,0,0,0,0,0,0,0,0,0,0,0,0,0,0,0,0,0,0,0,0,0,0,0,0,0,0,0,0,0,0,0,0,0,0,0,0,0,0,0,0,0,0,0,0,0,0,0,0,0,-7.0347,-7.035,0,-7.054,-7.0542,-7.0545,-7.0399,-7.0392,-7.0386,-7.038,-7.0571,-7.0581,-7.0592,0,0,0,0,0,0,0,0,0,0,0,0,0,-6.9845,-6.9855,-7.0347,-7.035,-7.0352,-7.054,-7.0542,-7.0545,-7.04,-7.0392,-7.0384,-7.0377,-7.0567,-7.058,-7.0593,0,0,0,0,0,0,0,0,0,0,0,0,0,-7.0053,-6.9859,-7.0347,-7.0302,-7.03,-7.0539,-7.0543,-7.0546,-7.0401,-7.0392,-7.0382,-7.0374,-7.0563,-7.0579,-7.0595,-7.0886,0,0,-7.0645,-7.0652,0,0,0,0,0,0,0,0,-7.0042,-7.0072,-7.0307,-7.0306,-7.0304,-7.0436,-7.0435,-7.066,-7.0404,-7.0363,-7.038,-7.0369,-7.0533,-7.0551,-7.0608,-7.0895,-7.0903,-7.0647,-7.0657,-7.0664,-7.0668,0,0,0,0,0,0,0,-7.0027,-7.0063,-7.0423,-7.031,-7.0309,-7.027,-7.0289,-7.0477,-7.0498,-7.0366,-7.0356,-7.0381,-7.053,-7.0593,-7.0611,-7.0906,-7.0646,-7.0661,-7.0671,-7.0677,-7.144,-7.145,0,0,0,0,0,0,-7.0018,-7.0052,-7.0417,-7.0429,-7.0147,-7.0287,-7.0308,-7.0403,-7.0496,-7.0501,-7.0389,-7.0373,-7.0569,-7.0592,-7.0618,-7.0965,-7.0664,-7.0679,-7.0688,-7.143,-7.1442,-7.1453,0,0,0,0,0,0,-7.0008,-7.0052,-7.0409,-7.0238,-7.028,-7.0306,-7.0413,-7.0412,-7.0474,-7.0514,-7.0516,-7.0449,-7.0563,-7.0594,-7.0821,-7.097,-7.0686,-7.0701,-7.1417,-7.1433,-7.1448,-7.1662,0,0,0,0,0,0,-6.9994,-7.005,-7.0163,-7.0242,-7.029,-7.0613,-7.0422,-7.0422,-7.0503,-7.0485,-7.0571,-7.0576,-7.0558,-7.0797,-7.0837,-7.0987,-7.0714,-7.1404,-7.1424,-7.1443,-7.1642,-7.1683,-7.1719,0,0,0,0,0,-6.9977,-7.0214,-7.0169,-7.0214,-7.0432,-7.0622,-7.0649,-7.0626,-7.0516,-7.0629,-7.0654,-7.0573,-7.0946,-7.0821,-7.0865,-7.1023,-7.1395,-7.1419,-7.1441,-7.1625,-7.1675,-7.1718,0,0,0,0,0,0,-7.015,-7.0223,-7.0175,-7.0445,-7.0528,-7.0597,-7.0738,-7.0679,-7.0794,-7.0772,-7.0735,-7.0756,-7.0994,-7.1029,-7.0889,-7.1308,-7.1152,-7.1186,-7.1277,-7.1325,-7.1363,-7.135,-7.0728,0,0,0,0,0,-7.022,-7.037,-7.0424,-7.0657,-7.0702,-7.0714,-7.0795,-7.0769,-7.0853,-7.0887,-7.0929,-7.1012,-7.1147,-7.1237,-7.1364,-7.1645,-7.1661,-7.1775,-7.1813,-7.1844,-7.1874,-7.2025,-7.2076,-7.153,-7.153,-7.153,0,0,-7.0365,-7.0424,-7.052,-7.0694,-7.0755,-7.091,-7.0744,-7.0914,-7.1027,-7.0912,-7.113,-7.1163,-7.1252,-7.1508,-7.1622,-7.1545,-7.2028,-7.1874,-7.1898,-7.1912,-7.2054,-7.2106,-7.2152,-7.1546,-7.1543,-7.1541,0,0,-7.0709,-7.0769,-7.097,-7.1035,-7.1132,-7.1137,-7.1185,-7.1263,-7.1282,-7.1499,-7.1416,-7.1548,-7.1783,-7.185,-7.1915,-7.2283,-7.2213,-7.2325,-7.2526,-7.2673,-7.2716,-7.2754,-7.2887,-7.2934,-7.2354,-7.2355,-7.2355,0,-7.0878,-7.111,-7.108,-7.1257,-7.1335,-7.1239,-7.1442,-7.1505,-7.1637,-7.1692,-7.1604,-7.1897,-7.195,-7.222,-7.231,-7.2365,-7.2418,-7.2317,-7.2713,-7.2751,-7.2786,-7.2911,-7.2961,-7.2368,-7.2366,-7.2365,-7.2364,0,-7.1312,-7.1473,-7.1623,-7.1757,-7.1851,-7.2039,-7.2036,-7.2135,-7.21,-7.2114,-7.2336,-7.2396,-7.2534,-7.2595,-7.2562,-7.286,-7.281,-7.2718,-7.2561,-7.2851,-7.2969,-7.3017,-7.2387,-7.2382,-7.2378,-7.2375,0,0,-7.1774,-7.1887,-7.1943,-7.2002,-7.21,-7.2223,-7.2405,-7.2542,-7.2628,-7.272,-7.2873,-7.3072,-7.2988,-7.3062,-7.3035,-7.3164,-7.3453,-7.3056,-7.3058,-7.313,-7.3785,-7.3856,-7.3912,-7.3405,-7.3414,-7.3422,-7.3778,0,-7.2125,-7.2447,-7.2425,-7.2728,-7.2876,-7.2786,-7.2944,-7.302,-7.3037,-7.3163,-7.318,-7.3324,-7.3201,-7.3245,-7.3369,-7.3392,-7.3584,-7.3365,-7.3546,-7.3553,-7.353,-7.3973,-7.4049,-7.4383,-7.3824,-7.3831,-7.3837,0,-7.2578,-7.269,-7.3009,-7.3084,-7.3145,-7.3289,-7.3412,-7.3534,-7.3617,-7.362,-7.3703,-7.3653,-7.3835,-7.3672,-7.392,-7.3772,-7.3843,-7.3866,-7.3878,-7.3896,-7.3715,-7.4005,-7.4488,-7.454,-7.3909,-7.3903,-7.3898,0,-7.2886,-7.3115,-7.3336,-7.3388,-7.3481,-7.3585,-7.3627,-7.3701,-7.3784,-7.389,-7.3944,-7.4068,-7.4137,-7.4233,-7.4218,-7.4101,-7.4472,-7.4307,-7.4479,-7.448,-7.4564,-7.456,-7.5068,-7.4606,-7.4606,-7.4605,-7.4604,0,-7.3282,-7.3481,-7.3475,-7.3612,-7.383,-7.3801,-7.4017,-7.4047,-7.4114,-7.4252,-7.4178,-7.4309,-7.428,-7.4409,-7.4397,-7.4605,-7.4636,-7.4643,-7.4638,-7.4652,-7.4651,-7.47,-7.4678,-7.4618,-7.4615,-7.4612,-7.461,0,-7.3665,-7.3669,-7.3904,-7.3972,-7.3994,-7.4153,-7.421,-7.4337,-7.4346,-7.4522,-7.4561,-7.4577,-7.4725,-7.4718,-7.4885,-7.4877,-7.5134,-7.51,-7.5108,-7.5102,-7.5275,-7.526,-7.5835,-7.5909,-7.5397,-7.5401,-7.5405,0,-7.392,-7.4071,-7.4156,-7.4245,-7.4296,-7.4439,-7.4524,-7.4498,-7.4589,-7.4694,-7.4809,-7.495,-7.5062,-7.5302,-7.5326,-7.5453,-7.5423,-7.5616,-7.5442,-7.5451,-7.5429,-7.5421,-7.5436,-7.5651,-7.5657,-7.5662,-7.5665,0,-7.4372,-7.4366,-7.4493,-7.4622,-7.4726,-7.4824,-7.4915,-7.499,-7.4974,-7.5079,-7.5231,-7.5319,-7.5489,-7.563,-7.5751,-7.5791,-7.5727,-7.5719,-7.5766,-7.5784,-7.5783,-7.5787,-7.5204,-7.5707,-7.5703,-7.57,-7.5698,-7.5696,-7.47,-7.483,-7.4911,-7.5054,-7.512,-7.5206,-7.5329,-7.5354,-7.5481,-7.5621,-7.5596,-7.5766,-7.5842,-7.5998,-7.605,-7.618,-7.6111,-7.6179,-7.6196,-7.6214,-7.6235,-7.5759,-7.6201,-7.62,-7.6199,-7.6198,-7.6197,0,-7.515,-7.5197,-7.5329,-7.5459,-7.5572,-7.5501,-7.5597,-7.5695,-7.5847,-7.5924,-7.6036,-7.621,-7.6345,-7.638,-7.651,-7.6608,-7.6581,-7.6643,-7.6637,-7.6647,-7.6288,-7.6236,-7.6662,-7.6662,-7.6662,-7.6662,-7.6662,-7.6662,-7.5398,-7.5615,-7.5619,-7.5866,-7.591,-7.6079,-7.614,-7.6218,-7.6279,-7.6478,-7.6591,-7.6613,-7.6673,-7.6806,-7.6926,-7.6932,-7.6985,-7.7059,-7.7054,-7.6719,-7.6672,-7.6628,-7.6579,-7.707,-7.7071,-7.7402,-7.7405,-7.7408]}]]